| time (UTC) | temp C | wind direction | speed KPH | gust KPH | rain 1hr cm | rain 24hr cm | rain mn cm | humidity % | barometer mb |
| 20260510220046 | 27 | 319 | 3.2 | 9.7 | 0.00 | 0.00 | 0.00 | 46 | 1016.5 |
| 20260510214545 | 27 | 265 | 4.8 | 12.9 | 0.00 | 0.00 | 0.00 | 45 | 1016.5 |
| 20260510213112 | 26 | 323 | 3.2 | 12.9 | 0.00 | 0.00 | 0.00 | 46 | 1016.5 |
| 20260510211546 | 27 | 259 | 1.6 | 9.7 | 0.00 | 0.00 | 0.00 | 45 | 1016.5 |
| 20260510210044 | 26 | 264 | 3.2 | 9.7 | 0.00 | 0.00 | 0.00 | 44 | 1016.6 |
| 20260510204601 | 27 | 317 | 3.2 | 12.9 | 0.00 | 0.00 | 0.00 | 47 | 1016.5 |
| 20260510203047 | 27 | 0 | 1.6 | 11.3 | 0.00 | 0.00 | 0.00 | 46 | 1016.6 |
| 20260510201549 | 27 | 279 | 3.2 | 9.7 | 0.00 | 0.00 | 0.00 | 48 | 1016.6 |
| 20260510200049 | 27 | 189 | 3.2 | 12.9 | 0.00 | 0.00 | 0.00 | 45 | 1016.6 |
| 20260510194601 | 27 | 197 | 3.2 | 9.7 | 0.00 | 0.00 | 0.00 | 46 | 1016.7 |
| 20260510193050 | 26 | 243 | 3.2 | 11.3 | 0.00 | 0.00 | 0.00 | 46 | 1016.9 |
| 20260510191554 | 26 | 324 | 0.0 | 8.0 | 0.00 | 0.00 | 0.00 | 49 | 1016.9 |
| 20260510190104 | 26 | 266 | 3.2 | 11.3 | 0.00 | 0.00 | 0.00 | 49 | 1017.0 |
| 20260510184545 | 26 | 313 | 6.4 | 14.5 | 0.00 | 0.00 | 0.00 | 50 | 1017.3 |
| 20260510183045 | 26 | 192 | 1.6 | 8.0 | 0.00 | 0.00 | 0.00 | 50 | 1017.4 |
| 20260510181613 | 26 | 227 | 1.6 | 9.7 | 0.00 | 0.00 | 0.00 | 52 | 1017.3 |
| 20260510180056 | 26 | 281 | 3.2 | 11.3 | 0.00 | 0.00 | 0.00 | 51 | 1017.3 |
| 20260510174559 | 25 | 284 | 6.4 | 16.1 | 0.00 | 0.00 | 0.00 | 51 | 1017.5 |
| 20260510173049 | 25 | 0 | 3.2 | 9.7 | 0.00 | 0.00 | 0.00 | 53 | 1017.9 |
| 20260510171558 | 25 | 198 | 3.2 | 6.4 | 0.00 | 0.00 | 0.00 | 54 | 1017.8 |
| 20260510170051 | 25 | 295 | 3.2 | 11.3 | 0.00 | 0.00 | 0.00 | 62 | 1017.9 |
| 20260510164559 | 24 | 214 | 1.6 | 11.3 | 0.00 | 0.00 | 0.00 | 61 | 1017.9 |
| 20260510163051 | 24 | 263 | 4.8 | 11.3 | 0.00 | 0.00 | 0.00 | 55 | 1017.8 |
| 20260510161545 | 24 | 0 | 1.6 | 12.9 | 0.00 | 0.00 | 0.00 | 63 | 1017.8 |
| 20260510160048 | 23 | 0 | 0.0 | 8.0 | 0.00 | 0.00 | 0.00 | 68 | 1017.9 |
| 20260510154543 | 22 | 0 | 1.6 | 8.0 | 0.00 | 0.00 | 0.00 | 69 | 1018.1 |
| 20260510153056 | 22 | 232 | 1.6 | 8.0 | 0.00 | 0.00 | 0.00 | 73 | 1018.2 |
| 20260510151547 | 22 | 174 | 1.6 | 6.4 | 0.00 | 0.00 | 0.00 | 80 | 1018.0 |
| 20260510150053 | 21 | 297 | 0.0 | 8.0 | 0.00 | 0.00 | 0.00 | 83 | 1018.1 |
| 20260510144601 | 20 | 269 | 3.2 | 11.3 | 0.00 | 0.00 | 0.00 | 85 | 1018.2 |
| 20260510143049 | 20 | 277 | 3.2 | 6.4 | 0.00 | 0.00 | 0.00 | 87 | 1018.0 |
| 20260510141548 | 19 | 0 | 0.0 | 4.8 | 0.00 | 0.00 | 0.00 | 88 | 1017.9 |
| 20260510140048 | 18 | 0 | 0.0 | 6.4 | 0.00 | 0.00 | 0.00 | 93 | 1017.8 |
| 20260510134545 | 17 | 130 | 0.0 | 4.8 | 0.00 | 0.00 | 0.00 | 94 | 1017.7 |
| 20260510133048 | 17 | 0 | 0.0 | 8.0 | 0.00 | 0.00 | 0.00 | 95 | 1017.7 |
| 20260510131548 | 16 | 142 | 1.6 | 8.0 | 0.00 | 0.00 | 0.00 | 95 | 1017.7 |
| 20260510130054 | 16 | 0 | 3.2 | 8.0 | 0.00 | 0.00 | 0.00 | 97 | 1017.6 |
| 20260510124547 | 15 | 0 | 0.0 | 6.4 | 0.00 | 0.00 | 0.00 | 97 | 1017.5 |
| 20260510123045 | 15 | 140 | 3.2 | 6.4 | 0.00 | 0.00 | 0.00 | 97 | 1017.4 |
| 20260510121545 | 13 | 139 | 1.6 | 8.0 | 0.00 | 0.00 | 0.00 | 97 | 1017.3 |
| 20260510120043 | 13 | 135 | 3.2 | 8.0 | 0.00 | 0.00 | 0.00 | 97 | 1017.2 |
| 20260510114557 | 13 | 0 | 0.0 | 4.8 | 0.00 | 0.00 | 0.00 | 98 | 1016.9 |
| 20260510113055 | 13 | 140 | 3.2 | 9.7 | 0.00 | 0.00 | 0.00 | 98 | 1016.7 |
| 20260510111545 | 12 | 0 | 0.0 | 6.4 | 0.00 | 0.00 | 0.00 | 98 | 1016.6 |
| 20260510110055 | 12 | 0 | 0.0 | 0.0 | 0.00 | 0.00 | 0.00 | 98 | 1016.6 |
| 20260510104542 | 12 | 0 | 0.0 | 0.0 | 0.00 | 0.00 | 0.00 | 98 | 1016.3 |
| 20260510103054 | 12 | 0 | 0.0 | 0.0 | 0.00 | 0.00 | 0.00 | 97 | 1016.2 |
| 20260510101559 | 12 | 0 | 0.0 | 0.0 | 0.00 | 0.00 | 0.00 | 97 | 1016.0 |
| 20260510100053 | 12 | 0 | 0.0 | 0.0 | 0.00 | 0.00 | 0.00 | 97 | 1015.7 |
| 20260510094551 | 12 | 0 | 0.0 | 0.0 | 0.00 | 0.00 | 0.00 | 96 | 1015.8 |
| 20260510093055 | 12 | 0 | 0.0 | 0.0 | 0.00 | 0.00 | 0.00 | 96 | 1015.5 |
| 20260510091551 | 12 | 0 | 0.0 | 0.0 | 0.00 | 0.00 | 0.00 | 96 | 1015.4 |
| 20260510090052 | 12 | 0 | 0.0 | 0.0 | 0.00 | 0.00 | 0.00 | 95 | 1015.4 |
| 20260510084603 | 12 | 0 | 0.0 | 0.0 | 0.00 | 0.00 | 0.00 | 96 | 1015.0 |
| 20260510083045 | 12 | 0 | 0.0 | 0.0 | 0.00 | 0.00 | 0.00 | 96 | 1014.8 |
| 20260510081551 | 12 | 0 | 0.0 | 0.0 | 0.00 | 0.00 | 0.00 | 96 | 1014.6 |
| 20260510080059 | 12 | 0 | 0.0 | 0.0 | 0.00 | 0.00 | 0.00 | 96 | 1014.5 |
| 20260510074600 | 13 | 0 | 0.0 | 0.0 | 0.00 | 0.00 | 0.00 | 95 | 1014.4 |
| 20260510073051 | 13 | 0 | 0.0 | 0.0 | 0.00 | 0.00 | 0.00 | 96 | 1014.3 |
| 20260510071549 | 13 | 0 | 0.0 | 0.0 | 0.00 | 0.00 | 0.00 | 95 | 1014.4 |
| 20260510064549 | 13 | 0 | 0.0 | 0.0 | 0.00 | 0.00 | 0.00 | 94 | 1014.5 |
| 20260510063050 | 13 | 0 | 0.0 | 0.0 | 0.00 | 0.00 | 0.00 | 94 | 1014.5 |
| 20260510061547 | 13 | 0 | 0.0 | 0.0 | 0.00 | 0.00 | 0.00 | 93 | 1014.5 |
| 20260510060048 | 13 | 0 | 0.0 | 0.0 | 0.00 | 0.00 | 0.00 | 93 | 1014.5 |
| 20260510054549 | 14 | 0 | 0.0 | 0.0 | 0.00 | 0.00 | 0.00 | 92 | 1014.5 |
| 20260510053053 | 14 | 0 | 0.0 | 0.0 | 0.00 | 0.00 | 0.00 | 92 | 1014.7 |
| 20260510051601 | 14 | 0 | 0.0 | 0.0 | 0.00 | 0.00 | 0.00 | 91 | 1014.7 |
| 20260510050059 | 15 | 0 | 0.0 | 0.0 | 0.00 | 0.00 | 0.00 | 90 | 1014.4 |
| 20260510044543 | 15 | 0 | 0.0 | 0.0 | 0.00 | 0.00 | 0.00 | 89 | 1014.4 |
| 20260510043046 | 15 | 0 | 0.0 | 0.0 | 0.00 | 0.00 | 0.00 | 88 | 1014.5 |
| 20260510041548 | 15 | 0 | 0.0 | 0.0 | 0.00 | 0.00 | 0.00 | 88 | 1014.4 |
| 20260510040100 | 15 | 0 | 0.0 | 0.0 | 0.00 | 0.00 | 0.00 | 87 | 1014.3 |
| 20260510034550 | 16 | 0 | 0.0 | 0.0 | 0.00 | 0.00 | 0.00 | 86 | 1014.3 |
| 20260510033054 | 16 | 0 | 0.0 | 8.0 | 0.00 | 0.00 | 0.00 | 85 | 1014.5 |
| 20260510031552 | 16 | 0 | 0.0 | 4.8 | 0.00 | 0.00 | 0.00 | 83 | 1014.4 |
| 20260510030048 | 17 | 0 | 0.0 | 6.4 | 0.00 | 0.00 | 0.00 | 81 | 1014.3 |
| 20260510024548 | 17 | 0 | 0.0 | 0.0 | 0.00 | 0.00 | 0.00 | 79 | 1014.0 |
| 20260510023045 | 17 | 0 | 0.0 | 0.0 | 0.00 | 0.00 | 0.00 | 79 | 1013.8 |
| 20260510021635 | 17 | 0 | 0.0 | 8.0 | 0.00 | 0.00 | 0.00 | 79 | 1013.7 |
| 20260510020051 | 18 | 0 | 0.0 | 0.0 | 0.00 | 0.00 | 0.00 | 75 | 1013.5 |
| 20260510014552 | 18 | 0 | 0.0 | 0.0 | 0.00 | 0.00 | 0.00 | 74 | 1013.2 |
| 20260510013057 | 18 | 0 | 0.0 | 0.0 | 0.00 | 0.00 | 0.00 | 72 | 1013.1 |
| 20260510011549 | 19 | 0 | 0.0 | 0.0 | 0.00 | 0.00 | 0.00 | 70 | 1012.8 |
| 20260510010054 | 20 | 0 | 0.0 | 0.0 | 0.00 | 0.00 | 0.00 | 68 | 1012.7 |
| 20260510004552 | 20 | 0 | 0.0 | 0.0 | 0.00 | 0.00 | 0.00 | 66 | 1012.6 |
| 20260510003052 | 21 | 0 | 0.0 | 0.0 | 0.00 | 0.00 | 0.00 | 67 | 1012.5 |
| 20260510001545 | 21 | 0 | 0.0 | 0.0 | 0.00 | 0.00 | 0.00 | 66 | 1012.4 |
| 20260510000048 | 21 | 0 | 0.0 | 0.0 | 0.00 | 0.00 | 0.00 | 66 | 1012.1 |
| 20260509234543 | 22 | 0 | 1.6 | 4.8 | 0.00 | 0.00 | 0.00 | 64 | 1012.0 |
| 20260509233044 | 22 | 0 | 0.0 | 3.2 | 0.00 | 0.00 | 0.00 | 65 | 1011.8 |
| 20260509231552 | 22 | 0 | 0.0 | 3.2 | 0.00 | 0.00 | 0.00 | 64 | 1011.8 |
| 20260509230052 | 22 | 290 | 1.6 | 6.4 | 0.00 | 0.00 | 0.00 | 62 | 1012.0 |
| 20260509224544 | 22 | 0 | 1.6 | 6.4 | 0.00 | 0.00 | 0.00 | 63 | 1011.8 |
| 20260509223052 | 22 | 0 | 0.0 | 9.7 | 0.00 | 0.00 | 0.00 | 64 | 1011.8 |
| 20260509221549 | 22 | 0 | 1.6 | 9.7 | 0.00 | 0.00 | 0.00 | 67 | 1011.8 |